Location: Dark Ridge Observatory
(32.8036°N, 105.4750°W)
Time: 15:44:52
(UTC-07:00)

Envisat - Visible Passes

Search period start: 22 February 2018 00:00
Search period end: 04 March 2018 00:00
Orbit: 764 x 766 km, 98.2° (Epoch: 22 February)

Date Brightness Start Highest point End Pass type
(mag) Time Alt. Az. Time Alt. Az. Time Alt. Az.
22 Feb 2.8 19:34:49 10° SSE 19:39:53 84° ENE 19:44:58 10° N visible
23 Feb 3.5 18:58:46 10° SE 19:03:19 35° ENE 19:07:53 10° N visible
23 Feb 5.2 20:38:33 10° SW 20:42:20 21° W 20:46:08 10° NW visible
24 Feb 4.5 18:24:06 10° E 18:26:56 15° ENE 18:29:46 10° NNE visible
24 Feb 3.7 20:00:33 10° S 20:05:28 51° W 20:10:24 10° NNW visible
25 Feb 2.9 19:23:46 10° SSE 19:28:46 65° ENE 19:33:47 10° N visible
25 Feb 6.0 21:06:59 10° WSW 21:08:08 11° W 21:09:18 10° WNW visible
26 Feb 3.9 18:48:02 10° SE 18:52:15 27° ENE 18:56:29 10° NNE visible
26 Feb 4.9 20:26:53 10° SSW 20:31:08 27° W 20:35:25 10° NW visible
27 Feb 3.2 19:49:18 10° S 19:54:19 67° WSW 19:59:22 10° NNW visible
28 Feb 3.1 19:12:48 10° SSE 19:17:40 50° ENE 19:22:33 10° N visible
28 Feb 5.7 20:54:10 10° SW 20:56:54 14° W 20:59:38 10° WNW visible
01 Mar 4.2 18:37:27 10° ESE 18:41:13 21° ENE 18:44:59 10° NNE visible
01 Mar 4.4 20:15:21 10° SSW 20:19:57 35° W 20:24:35 10° NNW visible
02 Mar 2.9 19:38:07 10° SSE 19:43:11 87° WSW 19:48:16 10° NNW visible
03 Mar 3.4 19:01:56 10° SE 19:06:36 38° ENE 19:11:16 10° N visible
03 Mar 5.4 20:42:08 10° SW 20:45:41 19° W 20:49:14 10° NW visible
